Weather History for KLCI - October, 2013

Change the Weather History Date:

Monday, October 28, 2013

  Actual Average (KCON) Record (KCON)
Temperature  
Mean Temperature 42 °F 44 °F  
Max Temperature 53 °F 56 °F 78 °F (1947)
Min Temperature 28 °F 33 °F 11 °F (1974)
Degree Days  
Heating Degree Days 24 21  
Month to date heating degree days 460  
Since 1 July heating degree days 695  
Cooling Degree Days 0 0  
Month to date cooling degree days 0  
Year to date cooling degree days 450  
Moisture  
Dew Point 26 °F    
Average Humidity 56    
Maximum Humidity 75    
Minimum Humidity 39    
Precipitation  
Precipitation 0.00 in 0.13 in 2.21 in (2006)
Month to date precipitation 3.66  
Year to date precipitation 33.31  
Snow  
Snow 0.00 in 0.00 in 0.50 in (1952)
Month to date snowfall 0.0  
Since 1 July snowfall 0.0  
Since 1 September snowfall 0.0  
Snow Depth -    
Sea Level Pressure  
Sea Level Pressure 30.11 in    
Wind  
Wind Speed 7 mph (WSW)    
Max Wind Speed 24 mph    
Max Gust Speed 31 mph    
Visibility 10 miles    
Events      
T = Trace of Precipitation, MM = Missing Value Source: NWS Daily Summary

Daily Weather History Graph

Daily Weather History Graph

Search for Another Location

Airport or City:

Trip Planner

Search our weather history database for the weather conditions in past years. The results will help you decide how hot, cold, wet, or windy it might be!

Date:

Astronomy

Oct. 28, 2013 Rise Set
Actual Time 7:16 AM EDT 5:41 PM EDT
Civil Twilight 6:46 AM EDT 6:11 PM EDT
Nautical Twilight 6:13 AM EDT 6:45 PM EDT
Astronomical Twilight 5:39 AM EDT 7:18 PM EDT
Moon 12:55 AM EDT (10/28) 2:32 PM EDT (10/28)
Length of Visible Light 11h 24m
Length of Day
10h 25m
Waning Crescent, 34% of the Moon is Illuminated
Oct 28
Waning Crescent
Nov 3
New
Nov 10
First Quarter
Nov 17
Full
Nov 25
Last Quarter

Hourly Weather History & Observations

Time (EDT) Temp. Windchill Dew Point Humidity Pressure Visibility Wind Dir Wind Speed Gust Speed Precip Events Conditions
12:15 AM 33.8 °F 29.6 °F 26.6 °F 75% 30.01 in 10.0 mi WSW 4.6 mph - N/A   Clear
12:35 AM 33.8 °F - 26.6 °F 75% 30.01 in 10.0 mi Calm Calm - N/A   Clear
12:55 AM 33.8 °F 29.6 °F 26.6 °F 75% 30.01 in 10.0 mi WSW 4.6 mph - N/A   Clear
1:15 AM 35.6 °F 30.7 °F 26.6 °F 70% 30.01 in 10.0 mi SW 5.8 mph - N/A   Clear
1:35 AM 35.6 °F 31.7 °F 26.6 °F 70% 30.01 in 10.0 mi SW 4.6 mph - N/A   Clear
1:55 AM 35.6 °F 32.8 °F 26.6 °F 70% 30.01 in 10.0 mi SW 3.5 mph - N/A   Clear
2:15 AM 35.6 °F 31.7 °F 26.6 °F 70% 30.01 in 10.0 mi SW 4.6 mph - N/A   Clear
2:35 AM 35.6 °F 29.9 °F 26.6 °F 70% 30.00 in 10.0 mi SW 6.9 mph - N/A   Clear
2:55 AM 35.6 °F 29.2 °F 24.8 °F 65% 30.01 in 10.0 mi SW 8.1 mph - N/A   Clear
3:15 AM 35.6 °F 29.2 °F 26.6 °F 70% 30.01 in 10.0 mi SW 8.1 mph - N/A   Clear
3:35 AM 35.6 °F 29.9 °F 26.6 °F 70% 30.01 in 10.0 mi SW 6.9 mph - N/A   Partly Cloudy
3:55 AM 37.4 °F 32.8 °F 26.6 °F 65% 30.01 in 10.0 mi WSW 5.8 mph - N/A   Mostly Cloudy
4:15 AM 37.4 °F 31.4 °F 26.6 °F 65% 30.01 in 10.0 mi WSW 8.1 mph - N/A   Overcast
4:35 AM 37.4 °F 33.8 °F 26.6 °F 65% 30.01 in 10.0 mi West 4.6 mph - N/A   Overcast
4:55 AM 37.4 °F 32.8 °F 26.6 °F 65% 30.02 in 10.0 mi WSW 5.8 mph - N/A   Overcast
5:15 AM 37.4 °F 32.1 °F 28.4 °F 70% 30.03 in 10.0 mi WSW 6.9 mph - N/A   Overcast
5:35 AM 37.4 °F 32.1 °F 28.4 °F 70% 30.02 in 10.0 mi WSW 6.9 mph - N/A   Overcast
5:55 AM 37.4 °F 34.9 °F 28.4 °F 70% 30.02 in 10.0 mi SW 3.5 mph - N/A   Overcast
6:15 AM 37.4 °F 33.8 °F 26.6 °F 65% 30.03 in 10.0 mi WSW 4.6 mph - N/A   Scattered Clouds
6:35 AM 37.4 °F 32.1 °F 28.4 °F 70% 30.03 in 10.0 mi SSW 6.9 mph - N/A   Mostly Cloudy
6:55 AM 37.4 °F 32.8 °F 28.4 °F 70% 30.03 in 10.0 mi SW 5.8 mph - N/A   Mostly Cloudy
7:15 AM 37.4 °F 32.1 °F 28.4 °F 70% 30.03 in 10.0 mi SW 6.9 mph - N/A   Overcast
7:35 AM 37.4 °F 31.4 °F 28.4 °F 70% 30.03 in 10.0 mi SW 8.1 mph - N/A   Overcast
7:55 AM 37.4 °F 34.9 °F 28.4 °F 70% 30.04 in 10.0 mi SW 3.5 mph - N/A   Overcast
8:15 AM 39.2 °F 37.0 °F 28.4 °F 65% 30.04 in 10.0 mi SW 3.5 mph - N/A   Mostly Cloudy
8:35 AM 39.2 °F - 28.4 °F 65% 30.04 in 10.0 mi Calm Calm - N/A   Partly Cloudy
8:55 AM 41.0 °F 34.3 °F 30.2 °F 65% 30.04 in 10.0 mi SW 11.5 mph - N/A   Clear
9:15 AM 42.8 °F 36.2 °F 30.2 °F 61% 30.05 in 10.0 mi SW 12.7 mph 18.4 mph N/A   Partly Cloudy
9:35 AM 42.8 °F 36.6 °F 30.2 °F 61% 30.05 in 10.0 mi SSW 11.5 mph 18.4 mph N/A   Mostly Cloudy
9:55 AM 44.6 °F 38.1 °F 30.2 °F 57% 30.04 in 10.0 mi SSW 13.8 mph - N/A   Scattered Clouds
10:15 AM 44.6 °F 38.4 °F 30.2 °F 57% 30.03 in 10.0 mi SW 12.7 mph 20.7 mph N/A   Clear
10:35 AM 46.4 °F 40.1 °F 30.2 °F 53% 30.03 in 10.0 mi SW 15.0 mph 21.9 mph N/A   Clear
10:55 AM 48.2 °F - 30.2 °F 50% 30.02 in 10.0 mi SW 15.0 mph 20.7 mph N/A   Clear
11:15 AM 48.2 °F - 30.2 °F 50% 30.02 in 10.0 mi SW 17.3 mph 25.3 mph N/A   Scattered Clouds
11:35 AM 48.2 °F - 30.2 °F 50% 30.02 in 10.0 mi SW 19.6 mph 26.5 mph N/A   Scattered Clouds
11:55 AM 51.8 °F - 32.0 °F 47% 30.01 in 10.0 mi SW 24.2 mph 29.9 mph N/A   Clear
12:15 PM 53.6 °F - 32.0 °F 44% 30.01 in 10.0 mi SW 20.7 mph 26.5 mph N/A   Clear
12:35 PM 53.6 °F - 32.0 °F 44% 30.01 in 10.0 mi WSW 18.4 mph 27.6 mph N/A   Mostly Cloudy
12:55 PM 51.8 °F - 30.2 °F 44% 30.02 in 10.0 mi WSW 18.4 mph 31.1 mph N/A   Scattered Clouds
1:15 PM 51.8 °F - 32.0 °F 47% 30.03 in 10.0 mi WSW 15.0 mph 18.4 mph N/A   Mostly Cloudy
1:35 PM 51.8 °F - 32.0 °F 47% 30.03 in 10.0 mi WSW 17.3 mph 20.7 mph N/A   Mostly Cloudy
1:55 PM 51.8 °F - 32.0 °F 47% 30.06 in 10.0 mi West 12.7 mph 23.0 mph N/A   Overcast
2:15 PM 48.2 °F - 32.0 °F 54% 30.08 in 10.0 mi WNW 18.4 mph 24.2 mph N/A   Overcast
2:35 PM 48.2 °F - 33.8 °F 58% 30.09 in 10.0 mi WNW 13.8 mph 20.7 mph N/A   Mostly Cloudy
2:55 PM 48.2 °F - 30.2 °F 50% 30.10 in 10.0 mi West 12.7 mph 21.9 mph N/A   Mostly Cloudy
3:15 PM 48.2 °F - 28.4 °F 46% 30.11 in 10.0 mi WNW 13.8 mph 24.2 mph N/A   Scattered Clouds
3:35 PM 46.4 °F 42.9 °F 28.4 °F 50% 30.13 in 10.0 mi WNW 6.9 mph 19.6 mph N/A   Scattered Clouds
3:55 PM 48.2 °F - 28.4 °F 46% 30.14 in 10.0 mi NW 11.5 mph 23.0 mph N/A   Mostly Cloudy
4:15 PM 46.4 °F 42.9 °F 26.6 °F 46% 30.15 in 10.0 mi WNW 6.9 mph 17.3 mph N/A   Mostly Cloudy
4:35 PM 46.4 °F 45.2 °F 26.6 °F 46% 30.16 in 10.0 mi NW 3.5 mph - N/A   Partly Cloudy
4:55 PM 46.4 °F 41.9 °F 24.8 °F 43% 30.17 in 10.0 mi WNW 9.2 mph - N/A   Mostly Cloudy
5:15 PM 46.4 °F 40.7 °F 24.8 °F 43% 30.19 in 10.0 mi NW 12.7 mph 23.0 mph N/A   Overcast
5:35 PM 44.6 °F 38.4 °F 23.0 °F 43% 30.20 in 10.0 mi NW 12.7 mph 19.6 mph N/A   Scattered Clouds
5:55 PM 44.6 °F 38.8 °F 21.2 °F 39% 30.22 in 10.0 mi NW 11.5 mph 21.9 mph N/A   Scattered Clouds
6:15 PM 42.8 °F 39.3 °F 21.2 °F 42% 30.23 in 10.0 mi WNW 5.8 mph - N/A   Partly Cloudy
6:35 PM 42.8 °F 39.3 °F 19.4 °F 39% 30.24 in 10.0 mi WNW 5.8 mph - N/A   Clear
6:55 PM 41.0 °F 38.0 °F 19.4 °F 42% 30.26 in 10.0 mi WNW 4.6 mph - N/A   Clear
7:15 PM 41.0 °F 39.0 °F 19.4 °F 42% 30.27 in 10.0 mi NNW 3.5 mph - N/A   Clear
7:35 PM 39.2 °F 35.0 °F 19.4 °F 45% 30.27 in 10.0 mi West 5.8 mph - N/A   Clear
7:55 PM 39.2 °F 33.0 °F 19.4 °F 45% 30.27 in 10.0 mi West 9.2 mph - N/A   Clear
8:15 PM 39.2 °F 35.9 °F 19.4 °F 45% 30.28 in 10.0 mi West 4.6 mph - N/A   Clear
8:35 PM 39.2 °F 37.0 °F 19.4 °F 45% 30.29 in 10.0 mi WSW 3.5 mph - N/A   Clear
8:55 PM 37.4 °F 32.1 °F 17.6 °F 45% 30.30 in 10.0 mi West 6.9 mph - N/A   Clear
9:15 PM 37.4 °F 32.8 °F 19.4 °F 48% 30.30 in 10.0 mi West 5.8 mph - N/A   Clear
9:35 PM 37.4 °F 33.8 °F 17.6 °F 45% 30.30 in 10.0 mi West 4.6 mph - N/A   Clear
9:55 PM 37.4 °F 32.1 °F 17.6 °F 45% 30.30 in 10.0 mi West 6.9 mph - N/A   Clear
10:15 PM 35.6 °F 31.7 °F 17.6 °F 48% 30.31 in 10.0 mi WNW 4.6 mph - N/A   Clear
10:35 PM 35.6 °F 29.9 °F 17.6 °F 48% 30.31 in 10.0 mi WNW 6.9 mph - N/A   Clear
10:55 PM 35.6 °F 30.7 °F 17.6 °F 48% 30.32 in 10.0 mi NW 5.8 mph - N/A   Clear
11:15 PM 35.6 °F - 17.6 °F 48% 30.32 in 10.0 mi Calm Calm - N/A   Clear
11:35 PM 30.2 °F - 17.6 °F 60% 30.32 in 10.0 mi Calm Calm - N/A   Clear
11:55 PM 28.4 °F - 19.4 °F 69% 30.32 in 10.0 mi Calm Calm - N/A   Clear